map of ZBR home
ZBR - Airport
Location
City:  Chah-Bahar, Sistan va Baluchestan, Iran
ICAO:OIZC
IATA:ZBR

Details
Type:Airport (Aerodrome, Airfield)
Use:Military
Latitude:2526'36"N (25.443350)
Longitude:6022'56"E (60.382114)
Datum:WGS 1984
Elevation:43 ft (13 m)
Variation:1.69E (WMM2015v2 magnetic declination)
0.05 annual change
Runways:2
Longest:12514 × 150 ft (3814 × 45.5 m), paved

Time
Time Zone:UTC+3:30 (DST+4:30)
Local Time:

Weather
TAF:OIZC 041100Z 0412/0518 20010KT 7000 FEW040 SCT100
BECMG 0417/0419 32010KT 3000 BR FEW030 SCT100
TEMPO 0419/0504 2000 BR
BECMG 0504/0506 6000 03016KT

Related Locations
Nearby:
Farthest:IPC: 11803 mi / 18994 km
Easter Island (Isla de Pascua, Rapa Nui) [Mataveri Intl], VS, CL

Find:

   beyond  
but within

Other Information
Maps:
NOTAMs:
Links:
Sources:

  
  • flag of Iran
  

Sectional Chart

Flight Planning
at skyvector.com

Satellite Image

Google Maps Satellite view

 

Copyright © 2004-2019 Karl L. Swartz. All rights reserved.
The Great Circle Mapper name and logo are trademarks of the Great Circle Mapper.
All other trademarks mentioned herein belong to their respective owners.
Please see credits for attibutions and further copyright information.

  Follow gcmap on Facebook Follow gcmap on Twitter GCmap on LinkedIn

hCard Microformat

Geo Microformat